Vero Beach, FL

10:26 PM EST on February 21, 2017 (GMT -0500)
Vero Beach Municipal

Weather History for KVRB - November, 2010

Change the Weather History Date:

Saturday, November 6, 2010

  Actual Average Record
Temperature  
Mean Temperature 55 °F 72 °F  
Max Temperature 66 °F 81 °F 92 °F (2002)
Min Temperature 44 °F 64 °F 43 °F (1970)
Degree Days  
Heating Degree Days 10 0  
Month to date heating degree days 17 0  
Since 1 July heating degree days 17 3  
Cooling Degree Days 0 7  
Month to date cooling degree days 37 47  
Year to date cooling degree days 3254 3175  
Growing Degree Days 6 (Base 50)    
Moisture  
Dew Point 35 °F    
Average Humidity 49    
Maximum Humidity 71    
Minimum Humidity 26    
Precipitation  
Precipitation 0.00 in 0.12 in 2.12 in (1981)
Month to date precipitation 0.32 0.71  
Year to date precipitation 34.37 47.11  
Sea Level Pressure  
Sea Level Pressure 30.15 in    
Wind  
Wind Speed 11 mph (NW)    
Max Wind Speed 21 mph    
Max Gust Speed 28 mph    
Visibility 10 miles    
Events      
T = Trace of Precipitation, MM = Missing Value Source: NWS Daily Summary

Daily Weather History Graph

Daily Weather History Graph

Search for Another Location

Airport or City:

Trip Planner

Search our weather history database for the weather conditions in past years. The results will help you decide how hot, cold, wet, or windy it might be!

Date:

Astronomy

Nov. 06, 2010 Rise Set
Actual Time 7:35 AM EDT 6:34 PM EDT
Civil Twilight 7:11 AM EDT 6:58 PM EDT
Nautical Twilight 6:43 AM EDT 7:26 PM EDT
Astronomical Twilight 6:16 AM EDT 7:54 PM EDT
Moon 8:02 AM EDT (11/6) 6:51 PM EDT (11/6)
Length of Visible Light 11h 47m
Length of Day
10h 58m
New Moon, 0% of the Moon is Illuminated
Nov 6
New Moon
Nov 13
First Quarter
Nov 21
Full
Nov 28
Last Quarter
Dec 5
New

Hourly Weather History & Observations

Time (EDT) Temp. Windchill Dew Point Humidity Pressure Visibility Wind Dir Wind Speed Gust Speed Precip Events Conditions
12:53 AM 48.9 °F - 39.0 °F 69% 30.08 in 10.0 mi WNW 6.9 mph - N/A   Clear
1:53 AM 48.0 °F - 37.9 °F 68% 30.08 in 10.0 mi NW 9.2 mph - N/A   Clear
2:53 AM 45.0 °F 41.2 °F 36.0 °F 71% 30.07 in 10.0 mi NNW 6.9 mph - N/A   Clear
3:53 AM 45.0 °F 43.5 °F 36.0 °F 71% 30.06 in 10.0 mi NW 3.5 mph - N/A   Clear
4:53 AM 46.9 °F - 36.0 °F 66% 30.07 in 10.0 mi NW 9.2 mph - N/A   Clear
5:53 AM 46.0 °F 41.9 °F 37.0 °F 71% 30.08 in 10.0 mi WNW 8.1 mph - N/A   Clear
6:53 AM 46.0 °F 40.6 °F 37.0 °F 71% 30.12 in 10.0 mi NW 11.5 mph - N/A   Clear
7:53 AM 46.0 °F 41.0 °F 37.0 °F 71% 30.14 in 10.0 mi NW 10.4 mph - N/A   Clear
8:53 AM 50.0 °F - 37.0 °F 61% 30.17 in 10.0 mi NW 9.2 mph - N/A   Clear
9:53 AM 55.0 °F - 37.0 °F 51% 30.19 in 10.0 mi NW 11.5 mph - N/A   Clear
10:53 AM 60.1 °F - 33.1 °F 36% 30.20 in 10.0 mi NNW 13.8 mph 23.0 mph N/A   Clear
11:53 AM 61.0 °F - 32.0 °F 34% 30.20 in 10.0 mi NW 17.3 mph 21.9 mph N/A   Clear
12:53 PM 64.0 °F - 28.9 °F 27% 30.18 in 10.0 mi NNW 12.7 mph - N/A   Clear
1:53 PM 64.9 °F - 30.9 °F 28% 30.15 in 10.0 mi North 11.5 mph 20.7 mph N/A   Clear
2:53 PM 64.9 °F - 33.1 °F 31% 30.14 in 10.0 mi North 11.5 mph 19.6 mph N/A   Clear
3:53 PM 66.2 °F - 32.0 °F 28% 30.14 in 10.0 mi North 12.7 mph 17.3 mph N/A   Clear
4:53 PM 64.9 °F - 33.1 °F 31% 30.14 in 10.0 mi North 13.8 mph 17.3 mph N/A   Clear
5:53 PM 62.6 °F - 33.8 °F 34% 30.15 in 10.0 mi North 8.1 mph 18.4 mph N/A   Clear
6:53 PM 55.9 °F - 36.0 °F 47% 30.18 in 10.0 mi NNW 5.8 mph - N/A   Clear
7:53 PM 55.0 °F - 37.9 °F 53% 30.20 in 10.0 mi NW 6.9 mph - N/A   Clear
8:53 PM 55.4 °F - 37.4 °F 51% 30.22 in 10.0 mi NW 9.2 mph - N/A   Mostly Cloudy
9:53 PM 55.0 °F - 39.0 °F 55% 30.23 in 10.0 mi NW 12.7 mph - N/A   Mostly Cloudy
10:53 PM 54.0 °F - 36.0 °F 51% 30.24 in 10.0 mi NW 15.0 mph - N/A   Scattered Clouds
11:53 PM 53.1 °F - 34.0 °F 48% 30.25 in 10.0 mi NW 12.7 mph - N/A   Mostly Cloudy